Flag Weather past 2 weeks in Sapporo, Japan

Now
41 °F

Quite cool.


Feels Like: 41 °F
Forecast: 36 / 48 °F
Wind: 2 mph from Southwest

Location: Sapporo

Current Time: Nov 28, 2014 at 8:11:04 AM

Latest Report: Nov 28, 2014 at 7:00 AM


Visibility: N/A

Pressure: 30.26 "Hg

Humidity: 80%

Dew point: 35 °F

Location of SapporoLocation

Historic Weather in Sapporo — Graph

°F

Sapporo temperature yesterday

Maximum temperature yesterday: 49 °F (at 1:00 PM)
Minimum temperature yesterday: 34 °F (at 7:00 AM)
Average temperature yesterday: 42 °F

Past Weeks' High & Low Weather Summary

 TemperatureHumidityPressure
High57 °F (Nov 22, 12:00 PM)92% (Nov 13, 9:00 PM)30.33 "Hg (Nov 13, 9:00 PM)
Low27 °F (Nov 15, 6:00 AM)36% (Nov 13, 1:00 PM)29.35 "Hg (Nov 13, 6:00 AM)
Average38 °F66%30.08 "Hg
* Reported Nov 13 6:00 AM — Nov 28 6:00 AM, Sapporo, Weather by CustomWeather, © 2014

Note: Actual official high and low records may vary slightly from our data, if they occured in-between our weather recording intervals... More about our weather records

Advertising

Sapporo weather history for previous 24 hours

 ConditionsComfort  
Time TempWeatherWind HumidityBarometerVisibility
6:00 AM
Nov 28
41 °FOvercast.1 mph78%30.25 "Hg9 mi
5:00 AM41 °FQuite cool.2 mph77%30.24 "HgN/A
4:00 AM41 °FQuite cool.1 mph77%30.23 "HgN/A
3:00 AM40 °FOvercast.1 mph76%30.22 "Hg12 mi
2:00 AM40 °FQuite cool.3 mph76%30.21 "HgN/A
1:00 AM41 °FQuite cool.2 mph74%30.21 "HgN/A
12:00 AM40 °FQuite cool.3 mph78%30.21 "HgN/A
11:00 PM
Nov 27
40 °FChilly.2 mph78%30.22 "HgN/A
10:00 PM40 °FChilly.1 mph79%30.21 "HgN/A
9:00 PM40 °FOvercast.3 mph79%30.21 "Hg12 mi
8:00 PM41 °FQuite cool.5 mph78%30.20 "HgN/A
7:00 PM42 °FQuite cool.3 mph79%30.19 "HgN/A
6:00 PM44 °FPassing clouds.3 mph79%30.18 "Hg12 mi
5:00 PM46 °FCool.2 mph79%30.17 "HgN/A
4:00 PM49 °FCool.2 mph68%30.16 "HgN/A
3:00 PM49 °FOvercast.8 mph69%30.14 "Hg19 mi
2:00 PM49 °FCool.10 mph66%30.13 "HgN/A
1:00 PM49 °FCool.8 mph68%30.13 "HgN/A
11:00 AM47 °FCool.8 mph63%30.15 "HgN/A
10:00 AM44 °FQuite cool.6 mph64%30.16 "HgN/A
9:00 AM39 °FScattered clouds.7 mph67%30.18 "Hg19 mi
8:00 AM36 °FChilly.5 mph75%30.19 "HgN/A
Weather by CustomWeather, © 2014

See weather overviewHow to use our weather pages